THORAD AGENA D DEB

基本信息
目录编号:
4214
目录名称:
THORAD AGENA D DEB
国际标识:
1969-082CD
轨道中心:
EARTH
物体状态:
在轨
发射日期:
1969-09-30 UTC
轨道信息
数据来源: 国际轨道数据
星历时间: 2026-09-15T15:35:53+0800
半长轴: 7116.254km
偏心率: 0.0059515
轨道倾角: 70.049°
近地点辐角: 287.075°
升交点赤经: 226.157°
平近点角: 72.386°
近地点: 695.764km
远地点: 780.47km
周期: 99.572分钟
每日圈数: 14.46191
详细信息
发射场:
AFWTR
轨道高度:
LEO
数据来源:
AOE Integration Group
参考系:
TEME
时间系统:
UTC
历元类型:
SGP4
2D轨道图
3D轨道图
轨道高度分析图
轨道倾角分析图
轨道综合分析图
查看轨道综合分析图